Preview of NWS' New Version of Forecast
This preview is not operational and should not be used for support decisions.

Regional Weather Roundup (RWR)

Issued by National Weather Service (NWS)

                            
000
ASUS44 KMEG 180500
RWRTN 
TENNESSEE HOURLY STATE WEATHER ROUNDUP
NATIONAL WEATHER SERVICE MEMPHIS TN
1100 PM CST SUN FEB 17 2019

TNZ002-004-019-021-049-052-054-088>092-180600-
WEST TENNESSEE
  
CITY           SKY/WX    TMP DP  RH WIND       PRES   REMARKS
MEMPHIS INTL   CLOUDY    38  30  73 NW10      30.09R WCI  31          
NWS MEMPHIS      N/A     37 N/A N/A MISG        N/A                   
JACKSON        FAIR      37  30  75 NW8       30.07R WCI  31          
DYERSBURG      FAIR      36  29  75 NW8       30.10R WCI  30          
$$

TNZ008-025-027-028-033-062-065-066-180600-
NORTH MIDDLE TENNESSEE
  
CITY           SKY/WX    TMP DP  RH WIND       PRES   REMARKS
NASHVILLE      CLOUDY    42  36  79 NW8       30.00R                  
CLARKSVILLE    CLOUDY    40  34  79 W8        30.00R WCI  34          
SMYRNA         CLOUDY    42  40  92 NW12      30.01R                  
CROSSVILLE     LGT RAIN  43  40  89 W12G20    29.94R                  
$$

TNZ061-075-076-078-094-096-097-180600-
SOUTH MIDDLE TENNESSEE
  
CITY           SKY/WX    TMP DP  RH WIND       PRES   REMARKS
$$

TNZ017-018-042-046-047-180600-
NORTHEAST TENNESSEE
  
CITY           SKY/WX    TMP DP  RH WIND       PRES   REMARKS
TRI CITIES     RAIN      46  46 100 CALM      29.88F FOG              
$$

TNZ012-013-036-069-073-074-180600-
CENTRAL EAST TENNESSEE
  
CITY           SKY/WX    TMP DP  RH WIND       PRES   REMARKS
KNOXVILLE      LGT RAIN  51  51 100 SW10      29.89R FOG              
OAK RIDGE      RAIN      51  51 100 W6        29.92R FOG              
$$

TNZ083-085-099-180600-
SOUTHEAST TENNESSEE
  
CITY           SKY/WX    TMP DP  RH WIND       PRES   REMARKS
CHATTANOOGA    LGT RAIN  51  49  92 NW5       29.92R FOG              
$$

SKY/WX REPORTED AS FAIR MEANS FEW OR NO CLOUDS BELOW
12 THOUSAND FEET.